Seattle, WA
on Tuesday, February 19, 2013

Tuesday
Previous Day Next Day
Daily Summary
 ActualAverageRecord
Temperature
Mean Temperature °F 44°F  
Max Temperature 51°F 50°F 67°F (1977)
Min Temperature 35°F 37°F 22°F (1986)
Degree Days
Heating Degree Days 22 21  
Month to date heating degree days 380 417  
Since 1 July heating degree days 2954 3066  
Cooling Degree Days 0 0  
Month to date cooling degree days 0 0  
Year to date cooling degree days 0 0  
Moisture
Dew Point 33°F   
Average Humidity 68    
Maximum Humidity 92    
Minimum Humidity 44    
Precipitation
Precipitation 0.00 in 0.12 in 1.76 in (1975)
Month to date precipitation 0.51 2.41  
Year to date precipitation 4.67 7.98  
Snow
Snow 0.00 in in 4.60 in (1949)
Month to date snowfall 0.0  
Since 1 July snowfall 0.6  
Snow Depth 0.00 in   
Wind
Wind Speed 8 mph   
Max Wind Speed 17 mph   
Max Gust Speed 20 mph   
Visibility 10 miles   
Events     

Key: T is trace of precipitation, MM is missing value
Source: NWS Daily Summary
Time(PST)TemperatureDew PointHumidity Pressure Visibility Wind DirectionWind SpeedGust SpeedPrecipitationEvents Conditions
12:53 AM 41.0°F 36.0°F 82% 29.77 in 10.0 miles NNE 5.8 mph - N/A   Mostly Cloudy
1:53 AM 39.9°F 33.1°F 77% 29.76 in 10.0 miles NE 5.8 mph - N/A   Mostly Cloudy
2:53 AM 36.0°F 30.9°F 82% 29.76 in 10.0 miles North 4.6 mph - N/A   Scattered Clouds
3:53 AM 37.9°F 32.0°F 79% 29.76 in 10.0 miles NNW 4.6 mph - N/A   Mostly Cloudy
4:53 AM 37.9°F 35.1°F 89% 29.77 in 10.0 miles North 5.8 mph - N/A   Overcast
5:53 AM 39.0°F 36.0°F 89% 29.78 in 10.0 miles North 3.5 mph - N/A   Overcast
6:53 AM 39.9°F 36.0°F 86% 29.79 in 10.0 miles North 6.9 mph - N/A   Overcast
7:53 AM 41.0°F 35.1°F 79% 29.80 in 10.0 miles NNE 11.5 mph - N/A   Mostly Cloudy
8:53 AM 42.1°F 36.0°F 79% 29.81 in 10.0 miles NNE 10.4 mph - N/A   Mostly Cloudy
10:53 AM 48.9°F 35.1°F 59% 29.84 in 10.0 miles North 9.2 mph - N/A   Mostly Cloudy
11:53 AM 48.9°F 30.9°F 50% 29.84 in 10.0 miles NNE 12.7 mph 19.6 mph N/A   Scattered Clouds
12:53 PM 50.0°F 33.1°F 52% 29.86 in 10.0 miles NNE 9.2 mph - N/A   Mostly Cloudy
1:53 PM 50.0°F 34.0°F 54% 29.86 in 10.0 miles North 10.4 mph - N/A   Mostly Cloudy
2:53 PM 51.1°F 30.9°F 46% 29.88 in 10.0 miles NNW 13.8 mph - N/A   Scattered Clouds
4:53 PM 46.9°F 32.0°F 56% 29.90 in 10.0 miles North 13.8 mph - N/A   Scattered Clouds
5:53 PM 44.1°F 30.9°F 60% 29.91 in 10.0 miles North 9.2 mph - N/A   Scattered Clouds
6:53 PM 41.0°F 33.1°F 73% 29.94 in 10.0 miles NNW 5.8 mph - N/A   Partly Cloudy
7:53 PM 41.0°F 33.1°F 73% 29.96 in 10.0 miles North 8.1 mph - N/A   Partly Cloudy
8:53 PM 41.0°F 34.0°F 76% 29.98 in 10.0 miles North 3.5 mph - N/A   Clear
9:53 PM 41.0°F 34.0°F 76% 30.00 in 10.0 miles Calm Calm - N/A   Clear
10:53 PM 41.0°F 35.1°F 79% 30.02 in 10.0 miles Calm Calm - N/A   Partly Cloudy
11:53 PM 39.9°F 34.0°F 79% 30.03 in 10.0 miles ESE 5.8 mph - N/A   Partly Cloudy
Moon Phase
Feb. 19 Feb. 25 Mar. 04 Mar. 11 Mar. 19
Sunrise:07:07 AM (PST) Moon Rise:12:02 PM (PST)2/19
Sunset:05:39 PM (PST) Moon Set:02:56 AM (PST)2/19

Copyright © 2014 The Weather Underground, Inc.